Showing default

NADEZHDA 1, 20103

Orbit data source: Space-Track

NADEZHDA 1, 20103 is a Commonwealth of Independent States-origin payload satellite in LEO that was launched on Tue, 04 Jul 1989 UTC via a KOSMOS 11K65M launch vehicle from the Plesetsk Missile And Space Complex (PKMTR). Payload-class satellites include a variety of spacecraft equipped with specific instruments for various scientific and technological missions. These include communications satellites like Starlink; space stations such as the ISS; scientific satellites like the Hubble; Earth observation satellites from companies like Planet Labs, Umbra, and HawkEye 360; GPS; miniature CubeSats for education and research; and military/defense satellites.

Loading next visibility...
Identifier
20103, 1989-050A
Orbit
LEO
Country
Flag of CISCIS
Related business
Manufacturer
Omsk Av. Zav.
Mission
Non-operational Civil Navigation
Bus & Motor
KAUR-1 17F118, Unknown motor
Mass
822 kg wet, 822 kg dry
Launch date (UTC)
1989-07-04 (37 years ago)
Launch vehicle
KOSMOS 11K65M
Launch site
Plesetsk Missile And Space Complex (PKMTR)
Object type
Payload
Rocket body
Debris
Shape & HBR
Cyl + 1 Ant, 8.5 m
Radar Cross Section
11.225 m², Large (>1 m²)

Expand to show TLE details & history
Last TLE update: 2 days ago

TLE from 2 days ago
0 NADEZHDA 1
1 20103U 89050A   26171.40353615  .00000063  00000-0  49165-4 0  9990
2 20103  82.9613 299.0867 0038846  98.8045 323.6018 13.74852102853890
Epoch: 2026-06-20T09:41Z
TLE epoch observation values (Epoch: 2026-06-20T09:41:05.523Z)
Latitude
61.42663°
Longitude
-101.77087°
Altitude
969.729 km
Speed
7.384 km/s
True Right ascension
20h 48m 28s
True Declination
61° 17' 10"
Sunlit
Object was in daylight at epoch
Visualization orbit readout
Latitude
Unknown
Longitude
Unknown
Altitude
Unknown
Speed
Unknown
Apparent Right ascension
Unknown
Apparent Declination
Unknown
Sunlit
N/A
Visualization observer readout
Local Sidereal Time
23:07:58
Azimuth
Unknown
Elevation
Unknown
Doppler factor
Unknown
Orbital elements
Apogee altitude
1,007.932 km
Perigee altitude
950.77 km
Semi-major axis
7,357.488 km
Eccentricity
0.00388
Inclination
82.9613°
RAAN
299.0867°
Arg. of periapsis
98.8045°
True anomaly
323.33662°
Mean anomaly
323.6018°
Eccentric anomaly
323.46931°
Mean motion
3.43913 °/min
Orbital period
104.68 mins
BSTAR
0.000049165
Loading maneuver chart data...
Computing Atmospheric mass density...
Loading historical data...
Loading historical data...
Loading historical data...
Loading historical data...
Loading historical data...
Loading historical data...
Loading historical data...
Other satellites on launch #50 in the year 1989 (1989-07-04 UTC)

Documentation

Showing up to 5 results
|